Regional Weather Roundup
Issued by NWS Charleston, SC

Current Version | Previous Version | Text Only | Print | Product List | Glossary Off
Versions: 1 2 3 4 5 6 7 8 9 10 11 12 13 14 15 16 17 18 19 20 21 22 23 24 25 26 27 28 29 30 31 32 33 34 35 36 37 38 39 40 41 42 43 44 45 46 47 48 49 50

000
ASUS42 KCHS 230525
RWRCHS

REGIONAL WEATHER ROUNDUP
NATIONAL WEATHER SERVICE CHARLESTON SC
1200 AM EST SUN NOV 23 2014

NOTE: "FAIR" INDICATES FEW OR NO CLOUDS BELOW 12,000 FEET WITH NO
SIGNIFICANT WEATHER AND/OR OBSTRUCTIONS TO VISIBILITY.

NOT ALL STATIONS ARE QUALITY CONTROLLED BY THE NATIONAL
WEATHER SERVICE. USE DATA WITH CAUTION...ESPECIALLY
DEWPOINT OBSERVATIONS.

SCZ027-030-031-034>040-042>050-230600-
...SOUTHEAST SOUTH CAROLINA...

CITY           SKY/WX    TMP DP  RH WIND       PRES   REMARKS
N CHARLESTON   CLOUDY    55  53  93 NE6       30.27F
WATERFRONT PRK   N/A     57 N/A N/A NE9         N/A
MOUNT PLEASANT MOCLDY    57  57 100 CALM      30.26F
JOHNS ISLAND   MOCLDY    57  57 100 NE5       30.26F
PINOPOLIS        N/A     54  52  94 E3        30.19F
MONCKS CORNER    N/A     54  54 100 CALM      30.27F FOG
SUMMERVILLE    LGT RAIN  52  52 100 CALM      30.26F
BEAUFORT MCAS  CLOUDY    57  55  93 NE5       30.25F
BEAUFORT ARPT  CLOUDY    55  55 100 NE6       30.24F
HILTON HEAD IS DRIZZLE   59  57  94 N7        30.24F
WALTERBORO     DRIZZLE   54 N/A N/A E5        30.26F
ALLENDALE      CLOUDY    54  52  94 VRB3      30.24F

...SOUTHERN MIDLANDS AND PEE DEE...

CITY           SKY/WX    TMP DP  RH WIND       PRES   REMARKS
GEORGETOWN     NOT AVBL
KINGSTREE      NOT AVBL
ORANGEBURG     LGT RAIN  52  47  83 E5        30.27F
BARNWELL       CLOUDY    54  50  87 NE5       30.27S
AIKEN          RAIN      50  39  66 CALM      30.30S
MANNING        NOT AVBL
COLUMBIA       CLOUDY    51  37  58 CALM      30.28F
SUMTER         CLOUDY    47  43  86 E2        30.27F
FLORENCE       CLOUDY    43  36  76 NE3       30.30F
MYRTLE BEACH   CLOUDY    48  45  87 N3          N/A
N MYRTLE BEACH MOCLDY    50  48  93 NE5       30.29F

$$

GAZ063-065-086>088-099>101-113>116-118-119-134>141-150-230600-
...SOUTHEAST GEORGIA...

CITY           SKY/WX    TMP DP  RH WIND       PRES   REMARKS
SAVANNAH ARPT  LGT RAIN  60  55  83 E9        30.23F
HUNTER AAF     LGT RAIN  59  57  94 NE7       30.19F
FORT STEWART   LGT RAIN  59  55  88 NE9       30.17F
STATESBORO     NOT AVBL
SYLVANIA       CLOUDY    58  55  92 E8        30.23F
CLAXTON        CLOUDY    59  59 100 E9        30.20F

...CSRA...CENTRAL AND FAR SOUTHEAST GEORGIA...

CITY           SKY/WX    TMP DP  RH WIND       PRES   REMARKS
THOMSON        CLOUDY    48  48 100 CALM      30.28F
AUGUSTA-BUSH   CLOUDY    50  46  86 NE3       30.25F
AUGUSTA-DANIEL LGT RAIN  52  44  74 E6        30.25F
SWAINSBORO     HVY RAIN  61  57  88 E7        30.24R
VIDALIA        RAIN      57  55  94 NE6       30.21S
HAZLEHURST     RAIN      58  58 100 NE7       30.18S
ALMA           LGT RAIN  59  57  93 E5        30.17F
WAYCROSS       LGT RAIN  63  62  96 E5        30.15F
JESUP          DRIZZLE   63  61  94 E7        30.17F
BAXLEY         LGT RAIN  59  59 100 E7        30.17F
BRUNSWICK        N/A     63  59  88 E7        30.17F
SAINT SIMONS   CLOUDY    63  60  90 E8        30.17F

$$

SCZ027-028-034-036>038-045-046-048>050-GAZ119-141-230600-
...LAKE AND SUPPLEMENTAL COASTAL OBSERVATIONS...

STATION/POSITION TIME  TEMP    WIND        PRES    WAVE   SWELL
                       AIR SEA DIR/SP/G            HT/PER HT/PER/DIR
                 (UTC) (F)     (DEG/KT/KT) (MB)    (FT/S) (FT/S/D)
UPR LAKE MARION  NOT AVBL
WINYAH BAY       0500   56      40/  7     1025.0S
LAKE MURRAY      0500   52      CALM  /  4 1025.1S
ACE BASIN NERRS  0500   56      30/  2     1024.0S
FORT PULASKI     0500   60      40/ 12/ 15 1023.6F
SAPELO ISLAND    NOT AVBL

$$

ANZ835-935-AMZ111-154-330-350-352-354-370-450-454-472-230600-
...C-MAN AND BUOY OBSERVATIONS...

STATION/POSITION TIME  TEMP    WIND        PRES    WAVE   SWELL
                       AIR SEA DIR/SP/G            HT/PER HT/PER/DIR
                 (UTC) (F)     (DEG/KT/KT) (MB)    (FT/S) (FT/S/D)
FOLLY BEACH CMAN 0500   57      40/ 12/ 14 1025.1F
BUOY 41004       0500   70 75  120/ 16/ 19 1024.3F   5/ 6   2/15
BUOY 41008       0500   68 64   90/ 10/ 12 1022.4F   5/ 6   5/100/ 6
CAPERS NEARSHORE 0400   58      50/ 12/ 16   N/A
FRIPP NEARSHORE  NOT AVBL


STATION/POSITION TIME  TEMP    WIND        PRES    WAVE   SWELL
                       AIR SEA DIR/SP/G            HT/PER HT/PER/DIR
                 (UTC) (F)     (DEG/KT/KT) (MB)    (FT/S) (FT/S/D)
5E ST. MARYS GA  0500      62                N/A     6/ 8   2/130/11
FRYING PAN BUOY  0500   65 62  130/ 10/ 12 1026.6F   3/ 9   2/150/ 9
BUOY 41025       0500   63     170/ 12/ 17 1027.9F   2/ 8   2/ 60/ 8
CAPE LOOKOUT NC  0500   58     130/  4/  7 1026.8F
BUOY 41002       0358   67 73  100/ 12/ 16 1027.6    4/ 9   3/ 30/ 9
BUOY 41010       0500   74 78  110/ 23/ 25 1021.5F   9/10   5/100/10
ST AUGUSTINE FL  0500   68     130/ 13/ 15 1021.2F


$$


USA.gov is the U.S. government's official web portal to all federal, state and local government web resources and services.